Location: Arbon
(43.0005°N, 0.7472°E)
Time: 13:47:22
(UTC+00:00)

SR - Pass Details

Date: 04 December 2020
Orbit: 575 x 880 km, 66.7° (Epoch: 17 January)

Event Time Altitude Azimuth Distance (km) Brightness Sun altitude
Rises 18:48:24 0° 268° (W) 2,865 ? -25.9°
Reaches altitude 10° 18:51:54 10° 298° (WNW) 2,019 ? -26.6°
Maximum altitude 18:53:54 13° 325° (NW) 1,884 ? -26.9°
Enters shadow 18:55:57 10° 351° (N) 2,093 ? -27.3°
